Location: Dresden
(51.0500°N, 13.7500°E)
Time: 22:35:16
(UTC+00:00)

ISS - Pass Details

Date: 29 March 2019
Orbit: 408 x 410 km, 51.6° (Epoch: 26 April)

Event Time Altitude Azimuth Distance (km) Brightness Sun altitude
Rises 19:03:29 0° 273° (W) 2,338 1.4 -14.6°
Reaches altitude 10° 19:05:34 10° 274° (W) 1,476 0.2 -14.9°
Maximum altitude 19:08:53 78° 1° (N) 423 -3.8 -15.3°
Enters shadow 19:10:13 33° 84° (E) 712 -3.1 -15.5°
